map of PHS home
Great Circle Mapper logo
PHS - Airport
Location
City:  Phitsanulok, Thailand
ICAO / IATA:VTPP / PHS

Details
Type:Airport (Aerodrome, Airfield)
Use:Public/Civil
Latitude:1646'59"N (16.782939)
Longitude:10016'45"E (100.279122)
Datum:WGS 1984
Elevation:154 ft (47 m)
Runways:1
Longest:9843 × 148 ft (3000 × 45 m), paved

Time
Time Zone:UTC+7
Local Time:

Weather
METAR:VTPP 160700Z 25009KT 9999 BKN023 BKN300 32/21 Q1000
TAF:VTPP 151700Z 1518/1624 23007KT 9999 SCT040
BECMG 1523/1600 14005KT 8000 SCT035
TEMPO 1609/1611 23020KT 2500 TSRA FEW020CB
BECMG 1614/1616 22007KT 8000 BKN035

Related Locations
Nearby:
Farthest:SJA: 12127 mi / 19516 km
San Juan (San Juan de Marcona), PE

Find:

   beyond  
but within

Other Information
Maps:
NOTAMs:
Links:
Sources:

  
flag of Thailand   

Sectional Chart

Flight Planning
at skyvector.com

Satellite Image

Google Maps Satellite View

 

Copyright © 2004-2014 Karl L. Swartz. All rights reserved.
The Great Circle Mapper name and logo are trademarks of the Great Circle Mapper.
All other trademarks mentioned herein belong to their respective owners.
Please see credits for attibutions and further copyright information.

  Follow gcmap on Facebook Follow gcmap on Twitter

hCard Microformat

Geo Microformat